Wind_Speed
28 26 24 23 22 20 19 18 17 15 14 13 12 10 9 8 7 6 5 4 4 4 3 3 4 5 6 7 9 11 12 14 16 18 19 20 20 20 20 20 20 19
30 28 27 25 24 22 21 20 18 17 16 15 14 13 12 11 9 8 7 6 6 5 5 5 5 5 6 7 8 10 12 14 16 18 19 20 20 21 21 21 20 20
31 31 29 28 26 24 23 22 20 20 19 17 16 15 14 13 11 10 9 8 7 7 7 7 7 6 6 7 8 10 12 13 16 18 19 20 21 21 21 21 20 20
32 31 31 29 28 27 26 24 23 22 21 19 19 18 16 15 14 12 11 10 9 9 8 8 8 8 8 7 8 9 11 13 15 17 19 20 20 20 21 20 20 20
30 31 31 31 31 30 29 27 26 25 23 22 22 20 19 17 16 15 14 12 12 11 10 10 10 10 9 8 8 9 10 12 14 17 18 19 20 20 20 20 20 21
29 30 31 32 32 33 31 30 28 27 26 25 24 22 21 20 18 17 16 15 14 13 12 12 11 11 11 10 9 9 11 12 14 16 17 18 19 19 19 20 20 20
30 30 30 31 33 33 32 31 31 30 29 27 26 25 24 22 21 20 19 18 16 15 14 13 13 13 12 11 10 10 11 12 14 16 17 17 18 18 19 20 20 20
31 30 29 30 31 32 32 32 32 31 31 29 28 27 26 24 24 22 21 20 19 17 15 15 14 14 14 13 11 11 11 13 15 16 17 17 18 18 19 20 20 20
32 32 30 30 30 31 32 32 32 32 32 30 30 29 28 27 26 25 24 22 20 19 17 16 16 15 15 14 13 12 13 14 16 17 17 18 18 18 19 19 19 19
33 33 32 30 29 29 31 31 31 32 32 31 31 30 30 29 28 27 26 24 22 20 19 18 17 16 16 15 14 14 14 15 17 18 18 18 17 18 19 19 19 19
33 35 34 32 30 29 30 30 31 32 31 31 32 32 31 30 29 28 27 26 24 22 21 20 19 18 17 16 15 15 16 17 18 19 20 19 18 19 19 19 19 19
31 35 36 35 32 30 30 30 31 31 31 31 32 31 31 31 30 29 28 27 26 24 23 21 20 19 18 17 17 16 17 17 18 20 21 20 19 19 20 19 19 20
31 34 36 36 34 33 31 31 31 31 30 31 31 31 31 31 30 30 29 29 28 26 24 23 22 21 20 19 18 18 18 18 19 20 21 21 20 21 21 20 20 20
34 34 35 35 34 34 33 33 32 32 31 31 31 31 31 30 30 30 30 30 29 27 25 24 23 22 22 21 20 19 19 19 20 21 22 22 21 21 21 21 20 21
35 35 35 34 34 34 35 35 34 34 33 32 32 31 30 30 30 30 30 30 30 28 26 26 25 24 23 23 22 21 20 20 20 22 22 22 22 22 22 21 21 22
36 36 36 35 34 35 35 36 36 35 35 34 33 31 30 30 30 31 31 30 30 29 27 27 26 24 24 24 24 23 22 22 22 22 23 23 23 23 22 21 21 22
35 36 37 36 36 36 36 36 37 37 36 36 34 32 31 31 31 31 31 31 30 29 28 27 26 25 25 26 25 25 24 24 24 24 24 24 24 24 23 22 22 22
34 35 37 38 37 37 37 37 37 38 38 37 36 35 34 33 33 32 31 31 31 30 29 28 26 26 27 28 27 26 26 26 25 25 26 25 25 24 24 23 23 23
34 35 37 38 38 38 38 37 38 38 38 37 37 36 36 35 35 34 33 32 32 31 30 29 27 28 29 29 29 28 28 28 27 27 27 27 26 25 25 24 24 24
34 35 36 37 38 38 38 39 39 39 38 38 38 38 38 37 37 36 34 34 33 33 32 31 29 29 30 31 31 31 31 31 29 29 29 28 27 26 26 25 25 26
35 35 36 37 37 38 39 40 40 40 39 39 39 39 39 38 38 37 37 36 35 35 34 33 31 31 32 33 33 34 34 33 32 31 30 29 28 28 27 27 26 27
36 35 35 35 36 38 39 40 40 40 40 39 39 40 40 39 39 38 38 37 37 37 36 35 34 34 35 36 36 37 37 35 34 33 32 31 30 29 28 28 28 28
38 36 35 35 35 36 38 39 40 40 39 40 40 41 41 40 39 38 38 38 39 39 39 38 37 37 38 38 39 39 39 37 36 35 34 32 31 29 29 29 29 29
41 38 36 35 35 35 36 37 37 38 39 39 41 41 41 40 39 38 39 40 41 41 41 41 40 40 41 41 41 41 41 39 38 37 35 33 31 30 30 30 30 30
42 40 37 36 35 35 35 35 35 35 36 38 39 40 40 39 39 39 40 41 42 42 43 43 42 42 43 43 43 43 43 41 39 38 36 34 32 31 32 31 31 31
44 41 39 37 36 36 35 34 33 33 34 35 37 38 38 39 39 39 40 41 41 42 42 43 43 43 44 44 44 44 44 42 41 39 37 34 33 33 33 32 32 31
Wind_Direction
212 212 212 213 214 214 214 215 217 219 221 222 223 225 228 234 242 249 254 259 264 267 280 303 318 326 334 341 346 351 356 358 358 359 359 359 359 358 357 357 357 358
214 215 215 216 217 217 217 219 221 223 225 228 229 230 233 237 243 249 256 262 268 271 277 286 294 304 315 326 334 341 346 351 353 353 354 355 356 355 354 353 353 353
215 217 218 219 220 221 222 222 223 226 228 230 232 234 236 239 244 249 253 260 267 272 277 281 285 291 299 313 324 332 339 345 348 349 350 351 352 352 351 350 350 350
215 217 219 221 222 223 224 225 225 227 229 230 232 235 237 240 244 247 251 257 262 269 275 278 282 286 292 303 314 325 333 340 344 345 346 347 348 349 348 347 347 348
217 218 219 221 223 225 226 228 228 229 230 231 232 234 236 239 243 247 250 254 258 264 270 275 279 282 286 295 306 319 328 335 339 340 342 344 345 346 344 343 344 346
218 219 218 220 223 225 228 229 231 232 232 233 234 235 237 239 241 245 249 252 256 260 265 271 275 279 283 289 300 314 323 330 333 335 338 340 342 342 340 340 342 344
220 220 219 220 223 226 229 230 232 234 235 235 236 237 238 239 241 244 247 251 255 258 262 268 273 277 280 285 294 306 316 322 326 330 334 337 339 338 337 338 341 343
221 222 221 221 223 226 230 232 233 235 237 238 239 240 240 240 242 244 246 250 253 256 260 264 270 274 277 281 288 298 306 314 319 325 331 334 335 334 333 336 340 343
223 225 223 222 224 226 230 233 235 236 238 240 241 242 242 243 243 245 247 250 253 255 258 262 266 271 274 278 285 292 300 307 314 321 327 331 332 330 330 335 339 342
225 228 227 225 224 226 229 233 236 237 239 241 242 243 245 246 247 248 249 252 254 255 257 260 263 266 269 273 280 287 294 301 309 316 322 326 326 325 327 332 337 339
226 229 230 228 225 226 229 233 235 238 239 241 243 245 247 248 249 250 252 254 255 256 257 259 262 264 266 268 274 282 288 296 305 312 317 320 320 320 322 328 333 335
227 230 231 230 226 225 228 232 235 238 239 241 244 246 248 250 251 252 254 255 257 258 259 260 262 263 264 265 269 276 283 291 300 307 313 314 314 314 318 324 329 330
229 231 233 232 228 225 226 230 234 237 239 241 244 246 248 250 252 253 255 256 257 258 259 260 261 262 263 264 266 272 279 287 295 303 308 309 307 309 314 320 324 325
231 232 235 235 233 229 227 229 233 236 238 241 243 245 247 250 252 254 254 255 257 258 260 260 261 261 262 263 266 270 276 283 291 298 304 304 302 304 310 316 320 321
232 233 236 237 237 234 230 229 232 234 237 239 242 243 246 249 251 253 254 255 257 259 260 260 261 262 262 263 266 270 275 281 288 295 299 299 298 301 307 311 315 317
234 234 235 237 239 237 235 232 233 234 236 238 241 243 246 248 250 251 253 255 257 259 259 260 261 262 262 263 266 270 275 280 285 291 295 295 296 299 303 307 310 312
237 235 234 236 238 239 239 236 235 235 237 238 240 242 244 246 248 250 253 255 256 258 258 259 261 262 262 263 266 270 274 278 282 287 291 292 294 298 301 304 306 308
238 237 235 234 236 239 240 240 239 238 238 239 240 241 243 245 247 249 252 253 255 256 257 258 259 260 260 262 265 269 272 275 278 283 287 289 292 295 298 301 303 304
239 238 236 235 235 238 240 242 242 242 241 241 242 243 244 245 246 248 250 252 254 255 256 257 256 257 259 262 265 267 269 271 274 279 283 287 289 292 296 298 299 301
239 239 238 237 236 237 239 241 243 244 244 245 245 246 246 247 248 248 249 251 253 254 256 256 256 256 258 261 263 265 266 268 271 276 279 283 286 289 293 296 296 298
238 238 239 239 238 237 237 239 242 244 245 246 248 249 250 251 251 251 251 251 252 254 256 256 257 257 258 260 262 263 264 267 270 273 277 281 283 285 290 293 294 295
236 238 238 239 239 238 238 239 241 243 246 248 250 251 253 254 254 254 254 254 254 254 256 257 258 258 259 260 261 262 264 266 269 272 276 278 279 282 287 290 290 291
233 236 237 237 238 238 238 239 241 243 246 248 251 252 254 256 257 258 258 257 255 255 255 256 257 258 259 260 261 263 265 267 269 272 274 275 276 279 284 287 288 289
231 233 235 236 237 238 238 239 240 242 245 247 250 252 255 257 259 260 259 257 256 255 254 254 255 256 257 259 261 263 266 267 269 271 272 272 274 277 282 284 285 286
231 232 233 236 239 239 239 240 241 242 244 246 248 251 253 255 256 257 256 256 256 255 255 255 255 255 257 259 260 263 265 267 269 270 271 271 272 275 280 282 283 285
231 232 233 235 238 240 241 242 243 244 245 247 248 249 250 251 252 253 253 254 254 255 256 256 256 256 257 258 260 262 264 266 268 269 269 269 271 274 278 280 281 282
Height
11001 11003 11005 11006 11007 11009 11010 11011 11012 11012 11013 11013 11014 11014 11015 11016 11017 11017 11017 11017 11017 11016 11016 11017 11017 11017 11017 11017 11018 11017 11017 11017 11016 11015 11015 11014 11013 11012 11010 11009 11008 11007
11000 11002 11004 11005 11006 11008 11009 11010 11011 11012 11012 11013 11014 11014 11015 11015 11016 11017 11017 11017 11017 11017 11016 11016 11016 11016 11017 11017 11017 11017 11017 11016 11016 11015 11014 11013 11012 11011 11010 11009 11008 11006
10998 11000 11002 11003 11005 11006 11008 11009 11010 11011 11011 11012 11013 11014 11014 11015 11015 11016 11016 11016 11017 11017 11016 11016 11016 11016 11016 11016 11016 11016 11016 11016 11015 11014 11013 11013 11012 11011 11010 11008 11007 11006
10996 10998 11000 11002 11003 11005 11006 11007 11008 11009 11010 11011 11012 11012 11013 11014 11014 11015 11015 11015 11016 11016 11016 11016 11016 11015 11015 11015 11015 11015 11015 11015 11014 11013 11013 11012 11011 11010 11009 11008 11007 11006
10994 10996 10998 11000 11001 11002 11003 11005 11006 11007 11008 11009 11010 11011 11012 11013 11013 11013 11014 11014 11014 11015 11015 11015 11015 11015 11015 11015 11014 11014 11014 11014 11013 11013 11012 11011 11011 11010 11009 11007 11006 11005
10991 10993 10995 10998 10999 10999 11001 11003 11005 11006 11007 11007 11008 11010 11010 11011 11012 11012 11012 11013 11013 11014 11014 11014 11014 11014 11014 11014 11014 11014 11013 11013 11013 11012 11012 11011 11010 11009 11008 11007 11006 11005
10988 10990 10992 10995 10996 10997 10999 11001 11002 11003 11005 11006 11007 11008 11009 11010 11010 11011 11011 11012 11012 11012 11013 11013 11013 11013 11013 11013 11013 11013 11013 11012 11012 11011 11011 11010 11010 11009 11007 11007 11006 11005
10986 10987 10990 10992 10993 10995 10996 10998 11000 11001 11002 11004 11005 11006 11007 11008 11008 11009 11010 11010 11011 11011 11011 11011 11011 11012 11012 11012 11012 11012 11012 11012 11011 11011 11010 11009 11009 11008 11007 11006 11005 11004
10984 10985 10987 10989 10991 10992 10994 10995 10997 10999 11000 11002 11003 11004 11005 11006 11007 11007 11008 11009 11009 11010 11010 11010 11010 11010 11010 11011 11011 11011 11011 11011 11010 11009 11009 11008 11007 11006 11005 11005 11004 11003
10981 10982 10984 10986 10988 10990 10991 10992 10994 10996 10998 10999 11001 11002 11003 11004 11005 11006 11006 11007 11008 11008 11008 11009 11009 11009 11009 11009 11010 11010 11009 11009 11008 11008 11007 11007 11006 11005 11004 11004 11003 11002
10979 10979 10981 10983 10985 10987 10988 10990 10991 10993 10995 10997 10998 11000 11001 11002 11003 11004 11005 11005 11006 11006 11006 11007 11007 11007 11007 11008 11008 11008 11008 11007 11007 11006 11006 11005 11004 11003 11003 11002 11001 11000
10976 10976 10977 10979 10982 10984 10986 10987 10988 10990 10992 10994 10995 10997 10998 11000 11001 11002 11003 11003 11003 11004 11004 11004 11005 11005 11005 11006 11006 11006 11006 11006 11005 11005 11004 11003 11003 11002 11001 11001 11000 10998
10972 10972 10974 10976 10979 10982 10983 10984 10985 10987 10989 10991 10992 10994 10995 10997 10998 11000 11001 11001 11001 11002 11002 11002 11003 11003 11003 11004 11004 11004 11004 11004 11003 11003 11002 11002 11001 11000 10999 10999 10998 10996
10969 10969 10971 10973 10976 10979 10980 10981 10982 10984 10986 10987 10989 10991 10992 10994 10996 10997 10998 10998 10998 10999 11000 11000 11000 11001 11001 11001 11001 11002 11002 11002 11001 11001 11000 11000 10999 10998 10997 10997 10996 10994
10966 10967 10968 10970 10973 10975 10976 10977 10978 10980 10982 10984 10985 10987 10989 10991 10992 10993 10994 10995 10996 10997 10997 10998 10998 10998 10999 10998 10999 10999 10999 10999 10999 10998 10998 10997 10997 10996 10996 10995 10994 10992
10962 10964 10966 10967 10969 10970 10972 10973 10975 10976 10978 10980 10982 10984 10986 10987 10988 10990 10991 10992 10993 10994 10994 10995 10996 10996 10996 10996 10996 10996 10996 10996 10995 10995 10995 10995 10995 10994 10994 10993 10992 10991
10959 10960 10962 10963 10964 10966 10968 10970 10971 10973 10974 10976 10978 10980 10982 10983 10984 10986 10987 10988 10989 10990 10991 10992 10993 10994 10993 10993 10993 10993 10993 10992 10992 10992 10992 10992 10992 10992 10991 10991 10990 10989
10954 10956 10958 10959 10960 10962 10964 10966 10968 10969 10970 10972 10974 10976 10978 10979 10980 10982 10983 10985 10986 10987 10988 10989 10990 10991 10990 10990 10990 10990 10989 10989 10989 10989 10989 10989 10989 10989 10988 10988 10987 10986
10950 10952 10954 10955 10957 10958 10960 10962 10963 10965 10966 10968 10970 10972 10974 10975 10976 10978 10980 10981 10982 10983 10984 10986 10987 10987 10987 10987 10987 10987 10986 10986 10986 10986 10986 10987 10987 10986 10986 10985 10984 10983
10946 10948 10949 10951 10953 10955 10957 10958 10959 10960 10962 10964 10966 10968 10969 10970 10972 10974 10976 10977 10978 10979 10980 10982 10983 10984 10983 10984 10984 10983 10983 10983 10983 10984 10984 10984 10984 10983 10983 10982 10981 10980
10941 10943 10945 10947 10949 10951 10952 10953 10954 10956 10958 10960 10962 10963 10965 10966 10968 10970 10972 10973 10974 10975 10976 10978 10979 10980 10980 10980 10980 10979 10979 10979 10981 10981 10981 10981 10981 10980 10980 10979 10978 10977
10937 10939 10941 10943 10945 10946 10947 10948 10950 10952 10954 10956 10958 10959 10961 10962 10964 10966 10968 10969 10970 10971 10972 10973 10975 10975 10975 10975 10975 10975 10975 10976 10977 10977 10978 10978 10978 10977 10976 10976 10975 10974
10932 10934 10936 10938 10940 10941 10942 10944 10946 10949 10951 10952 10954 10955 10956 10958 10960 10962 10964 10965 10966 10966 10967 10968 10970 10970 10970 10970 10970 10970 10971 10972 10973 10974 10974 10974 10975 10974 10973 10972 10971 10971
10927 10929 10932 10933 10935 10936 10938 10940 10942 10945 10947 10948 10949 10951 10952 10954 10956 10958 10959 10960 10960 10961 10962 10963 10965 10965 10965 10965 10966 10966 10966 10968 10969 10969 10970 10971 10971 10970 10969 10969 10968 10967
10922 10925 10927 10929 10930 10932 10934 10936 10938 10940 10942 10943 10944 10946 10948 10949 10951 10952 10953 10954 10954 10955 10956 10958 10959 10960 10960 10960 10961 10961 10961 10963 10964 10965 10965 10967 10967 10966 10965 10965 10964 10964
10918 10920 10922 10924 10925 10927 10930 10932 10934 10936 10937 10938 10939 10941 10942 10944 10945 10946 10947 10948 10949 10950 10951 10952 10954 10955 10955 10955 10956 10956 10957 10958 10959 10960 10961 10962 10962 10962 10961 10961 10960 10960